sat.trackr.live / text

‹ back to catalog

YAOGAN-32 02A

NORAD 49383 · 2021-099A

PAYLOAD ACTIVE UNKNOWN

§ Identity

Operator
Country
PRC
Launch date
2021-11-03
Launch site
JSC
Launch vehicle
Mass (kg)
RCS (m²)

External: N2YO · Heavens-Above · Gunter

§ Orbital elements

Epoch: 2026-09-20T23:23:44.761632Z

Period
98.34 min
Inclination
98.2606°
Eccentricity
0.0000082
Mean motion
14.64320093 rev/d
Perigee alt
679.2 km
Apogee alt
679.3 km
Semi-major
7,057.4 km
B*
8.6211e-5
RAAN
37.9846°
Arg perigee
74.1766°
Mean anomaly
285.9446°
Rev number
26,038

§ Raw data

YAOGAN-32 02A1 49383U 21099A   26263.97482363  .00000406  00000+0  86211-4 0  99902 49383  98.2606  37.9846 0000082  74.1766 285.9446 14.64320093260387

JSON: /api/v1/satellites/49383 · /tle

For live sub-satellite position, see the globe view (requires WebGL).

§ Visibility from observer

Set your observer location to see the next 7 days of passes ≥ 10°. The values pass through the URL so the page stays shareable.

No JS? Fill the form by hand. The geolocation button needs JavaScript.